Vertical_Velocity
-2 -2 -1 -1 -2 -1 -1 -0 1 0 -2 -0 -1 1 -0 -1 -0 -0 -2 -2 -2 -1 -1 -1 -2 -2 -4 -2 1 1 -6 6 -5 5 -0 6 -9 -9 6 4 7 -1 -2 -0 -2
-3 -3 -3 -1 -1 -2 -1 -1 -1 -0 -1 -1 -1 -2 0 1 0 -1 -1 -1 -1 -3 -1 -2 -1 -1 -3 -3 2 5 -6 15 -1 1 -5 5 1 -1 2 8 19 3 -6 -0 1
-1 -1 -2 -2 -3 -2 0 -1 -1 0 0 -0 -1 -1 -1 -3 -0 1 -0 -1 0 -2 -2 -2 -2 -2 -0 -2 -3 4 4 10 -3 1 -3 -7 14 3 8 0 2 -0 0 0 -3
-1 -2 -1 -0 -1 -2 -2 -1 -1 -1 -2 -1 0 -0 -1 -2 -2 -3 -1 1 -1 -1 -2 -2 -2 -4 -1 -5 7 2 -3 -7 8 -4 2 7 -3 9 2 3 -4 1 -4 -2 -3
1 1 1 -0 -1 -0 -1 -2 -2 -2 -1 -1 -1 -2 -0 1 -0 -1 -0 1 1 -0 -0 -2 -0 -1 -3 -5 0 4 -0 9 -3 -5 10 -3 0 -3 0 -2 3 8 -4 -3 0
-3 -2 -2 -1 -0 0 0 1 0 -2 -1 -2 -2 -2 -2 2 6 0 -0 -1 0 2 0 1 -2 -1 -2 -2 -4 -4 -2 -3 -8 -7 6 -4 -0 20 -9 -6 1 0 3 -5 1
-2 -3 -4 -2 -1 -2 -1 -0 -0 1 -1 -1 -2 -4 -4 -0 -1 -3 -1 -1 0 1 0 2 1 -1 -1 0 -1 -1 -1 -2 -4 -6 24 -3 -5 6 -3 0 -3 -7 6 -3 -3
-3 -2 -1 -0 -1 -3 -1 -1 1 -1 -1 -1 -2 -7 4 -8 -2 -0 1 -0 -3 -1 1 -1 -1 -1 -1 -2 -1 -6 -2 -5 -7 3 11 -8 1 -2 -4 -17 -1 -2 3 -1 -4
-2 -2 -2 -3 -2 -1 -2 -1 -0 -1 -1 -2 1 -9 10 -5 3 -5 -2 1 0 -2 -1 0 -0 -1 -1 3 -1 -3 -2 -1 -2 7 10 -10 -7 2 1 -6 -6 -2 4 0 -2
0 -3 -6 0 -3 -0 -3 1 -2 -1 -6 -3 4 -12 11 8 -2 -0 2 1 -1 -0 -0 -2 -1 1 -1 1 -1 -3 10 2 -9 2 14 2 -8 -13 38 -1 3 -8 1 -1 -2
-0 -0 -4 -0 0 3 -2 3 -12 -5 -3 6 13 -17 -3 -2 -6 4 -0 -4 2 -1 2 1 -5 -1 -1 -0 -1 -0 -6 -4 -1 10 4 -8 -6 2 -6 5 -4 -2 0 -4 -5
-4 -3 -5 -4 1 -3 1 1 -8 -8 -13 5 7 -14 6 1 -7 2 -1 -0 -5 1 0 0 -1 3 -1 -1 4 3 -4 -0 -2 -5 -6 -6 -4 4 -2 1 -5 19 -9 -1 -1
-1 -2 -3 -2 -5 -1 -3 4 1 -4 -22 29 4 -5 5 15 2 -1 -3 3 -4 -2 0 -4 2 -0 -2 -0 0 -1 0 -2 -0 0 2 -3 -2 -3 -2 -8 1 1 -4 -5 -2
-1 -2 -3 -6 -2 -5 -6 7 -3 -6 -20 1 -10 -38 -6 2 -14 12 -4 -2 -4 -3 -6 -1 3 -1 16 -0 -3 -4 2 1 -4 -1 -1 6 -6 -8 -5 8 -10 -6 3 -12 5
-2 -2 -9 0 -4 -3 -5 -2 -1 -0 -21 -4 5 3 -14 8 12 4 10 10 -10 -2 -0 -9 0 -2 3 1 13 -0 -0 1 4 -5 -1 -4 -3 -13 15 1 7 7 6 5 -3
-2 -1 -7 2 -2 -2 -3 -2 -1 -3 -23 -7 6 3 7 8 -0 10 3 9 2 3 -2 -2 -2 7 2 5 -3 3 -1 -1 -3 0 -5 -7 -7 -1 25 2 14 17 15 3 -5
-3 -1 -4 -6 -8 -2 -4 -1 -2 -9 20 -8 0 5 -4 -1 14 9 5 24 -14 1 -10 10 -5 -3 -1 -3 3 1 3 -1 -3 -3 -19 -2 7 -20 53 -50 -1 -12 -9 1 6
-4 -4 -5 -4 -2 -2 -1 -1 -4 9 4 13 -11 16 -7 1 -8 4 -3 18 22 4 5 3 -6 0 3 -4 -2 4 -2 2 0 2 38 20 -10 28 4 19 -7 3 -16 5 -3
-2 -5 -0 -1 -5 -3 -1 -4 2 1 4 7 -25 -12 -2 -3 35 38 -7 -12 15 -1 -15 8 -12 14 4 -1 0 -0 -8 6 -4 -10 0 18 -15 6 6 -10 -0 -13 3 -3 -3
-6 -5 0 -3 -2 -2 -6 1 -4 -3 1 11 -2 6 7 -3 1 5 21 31 -1 5 13 -0 -17 3 6 27 18 -13 8 -6 -4 6 -12 -8 19 56 20 17 10 -12 5 -3 -3
-5 -8 10 -3 -3 -3 -1 -1 -5 -0 7 -1 -2 -4 0 -5 35 17 -5 3 53 6 11 -4 13 -5 1 -1 -0 23 -3 -12 13 22 10 -10 -6 -7 11 -12 5 55 -16 2 -3
-5 -9 3 -3 -3 0 -0 0 -2 3 -3 4 -2 -6 -14 1 -11 15 -1 18 -30 -2 40 -7 4 -10 -22 17 -10 -7 -2 4 -3 -5 -10 6 25 -74 11 3 -17 13 -2 5 -3
-2 -2 1 -4 -2 -3 -1 -1 -2 -1 -2 -1 -3 -3 2 -7 -10 3 15 -27 -13 20 11 2 22 9 -1 20 35 -7 -6 1 5 1 -28 8 29 29 -12 -29 17 -2 1 2 -0
-3 -4 -2 -0 -2 -1 0 0 -1 -2 -0 0 -4 -8 -4 -1 -3 -1 9 17 20 9 -35 8 7 -0 10 0 4 58 28 3 12 27 -0 -18 18 -14 -10 4 -25 18 4 5 -1
-2 -3 -2 -8 -1 -4 -2 -1 -2 1 -0 -0 -2 -0 1 -9 -13 -17 8 13 -7 15 15 0 -12 -8 9 -14 28 -4 -35 3 -4 -4 0 -17 31 -35 2 -3 28 24 11 9 12
-4 -4 -1 2 3 2 0 2 -2 1 -4 -6 4 -2 2 1 1 -12 -7 -9 6 9 -14 -1 -16 -3 -19 5 17 -0 -4 16 -17 -0 -7 24 -35 13 17 22 -2 -7 14 5 1
-4 -4 -3 -0 -1 -2 4 -0 -1 -1 11 -4 -2 1 -6 -8 -3 7 -1 -9 -2 10 -18 3 11 -6 -6 -2 16 -21 11 51 -13 -2 28 68 14 23 -4 3 -11 -14 2 4 -4
Height
5925 5926 5927 5928 5929 5929 5929 5929 5929 5929 5930 5932 5931 5931 5930 5930 5930 5931 5930 5931 5931 5931 5932 5933 5934 5936 5938 5939 5939 5938 5940 5942 5946 5945 5942 5940 5935 5929 5926 5920 5917 5916 5913 5909 5906
5923 5924 5925 5926 5926 5928 5929 5929 5929 5928 5928 5929 5930 5930 5929 5929 5929 5929 5930 5929 5930 5930 5931 5932 5933 5934 5935 5937 5937 5939 5939 5944 5945 5942 5940 5940 5937 5933 5929 5916 5908 5917 5916 5913 5909
5920 5920 5921 5923 5924 5924 5925 5926 5926 5927 5927 5927 5927 5928 5928 5928 5929 5928 5928 5928 5929 5929 5929 5930 5931 5931 5932 5933 5936 5939 5939 5942 5942 5940 5938 5938 5937 5935 5933 5923 5919 5917 5918 5914 5911
5915 5916 5917 5918 5919 5920 5921 5922 5922 5923 5923 5924 5925 5924 5925 5925 5929 5925 5926 5927 5928 5927 5928 5928 5928 5929 5930 5931 5937 5939 5937 5938 5940 5939 5938 5937 5935 5936 5931 5928 5920 5917 5918 5914 5910
5909 5910 5911 5912 5913 5915 5916 5917 5917 5918 5919 5919 5920 5921 5922 5923 5923 5923 5924 5924 5925 5926 5926 5926 5926 5926 5927 5928 5932 5934 5936 5936 5936 5935 5937 5933 5932 5930 5931 5926 5923 5918 5917 5914 5910
5903 5904 5905 5906 5907 5907 5908 5910 5911 5912 5912 5914 5915 5915 5917 5919 5920 5919 5921 5921 5922 5923 5924 5923 5923 5924 5924 5923 5924 5926 5928 5929 5929 5931 5936 5933 5932 5931 5925 5926 5921 5916 5918 5913 5910
5897 5898 5899 5899 5899 5900 5902 5903 5904 5905 5905 5906 5907 5908 5910 5913 5915 5915 5916 5917 5918 5919 5920 5920 5920 5921 5921 5921 5921 5923 5925 5925 5927 5931 5936 5933 5931 5930 5923 5922 5919 5916 5917 5912 5909
5890 5890 5891 5891 5891 5892 5893 5895 5897 5897 5898 5898 5900 5900 5903 5903 5907 5909 5913 5913 5914 5914 5916 5916 5917 5918 5917 5918 5919 5919 5920 5923 5927 5930 5932 5930 5931 5926 5921 5919 5918 5916 5915 5911 5908
5884 5884 5883 5883 5882 5883 5883 5884 5886 5888 5889 5890 5891 5890 5897 5898 5901 5902 5905 5908 5908 5910 5911 5912 5913 5914 5914 5915 5916 5918 5919 5921 5926 5929 5930 5927 5927 5928 5926 5919 5917 5914 5914 5910 5909
5878 5876 5877 5875 5875 5874 5873 5874 5874 5875 5877 5879 5882 5883 5891 5894 5893 5892 5896 5899 5902 5904 5906 5908 5908 5909 5911 5911 5913 5916 5922 5923 5925 5929 5926 5925 5923 5925 5927 5920 5918 5913 5913 5910 5908
5872 5870 5869 5868 5865 5863 5865 5864 5864 5862 5865 5870 5875 5873 5880 5880 5882 5888 5890 5891 5894 5897 5900 5901 5902 5905 5907 5908 5910 5913 5915 5917 5919 5922 5920 5920 5918 5920 5920 5918 5917 5912 5911 5909 5906
5868 5866 5863 5860 5856 5853 5852 5851 5849 5852 5853 5857 5860 5859 5871 5872 5873 5882 5884 5884 5887 5891 5893 5895 5895 5901 5902 5904 5907 5908 5907 5909 5910 5912 5913 5913 5913 5915 5916 5914 5913 5913 5907 5907 5905
5860 5857 5854 5850 5847 5845 5841 5839 5839 5837 5834 5846 5847 5851 5859 5862 5863 5872 5876 5878 5879 5883 5887 5888 5893 5896 5898 5899 5901 5900 5901 5904 5906 5908 5909 5909 5908 5907 5911 5909 5908 5910 5905 5902 5902
5852 5848 5845 5841 5838 5835 5830 5832 5827 5825 5820 5831 5836 5840 5846 5850 5850 5864 5867 5871 5874 5876 5881 5884 5890 5893 5896 5895 5895 5895 5898 5901 5901 5903 5904 5906 5905 5905 5905 5906 5904 5905 5904 5899 5899
5844 5840 5836 5833 5828 5825 5822 5819 5817 5816 5808 5823 5832 5833 5835 5839 5849 5849 5860 5862 5864 5871 5876 5879 5884 5888 5889 5890 5892 5890 5893 5895 5897 5896 5897 5898 5900 5902 5904 5903 5902 5900 5896 5897 5895
5832 5830 5826 5822 5817 5814 5809 5807 5807 5807 5802 5816 5823 5828 5829 5832 5837 5846 5850 5854 5860 5862 5866 5871 5878 5882 5884 5885 5883 5885 5886 5888 5890 5891 5890 5893 5896 5898 5902 5900 5900 5897 5888 5893 5893
5824 5821 5816 5811 5807 5804 5799 5798 5798 5798 5807 5811 5817 5823 5828 5830 5834 5837 5841 5849 5847 5853 5856 5862 5867 5873 5878 5878 5880 5881 5882 5884 5886 5888 5888 5891 5894 5896 5898 5888 5894 5888 5886 5889 5891
5816 5812 5807 5803 5796 5792 5789 5789 5790 5797 5801 5807 5811 5818 5820 5826 5829 5833 5835 5841 5845 5848 5852 5855 5859 5864 5870 5871 5873 5876 5879 5880 5883 5886 5890 5889 5890 5893 5894 5892 5886 5889 5883 5889 5887
5806 5801 5797 5791 5785 5782 5782 5783 5788 5791 5796 5801 5801 5806 5812 5819 5824 5828 5829 5834 5838 5842 5844 5849 5851 5860 5863 5866 5869 5869 5870 5877 5878 5879 5881 5886 5884 5887 5885 5885 5884 5879 5881 5881 5880
5797 5791 5788 5781 5776 5775 5776 5780 5781 5784 5788 5793 5796 5801 5805 5812 5817 5820 5823 5828 5831 5835 5840 5842 5844 5850 5856 5862 5863 5862 5868 5870 5871 5875 5876 5879 5882 5881 5879 5876 5876 5870 5874 5874 5875
5789 5783 5780 5773 5769 5770 5772 5774 5774 5777 5783 5786 5789 5792 5797 5803 5808 5803 5810 5820 5824 5827 5831 5835 5839 5843 5848 5849 5854 5859 5859 5862 5867 5871 5873 5875 5878 5873 5872 5869 5870 5865 5867 5870 5870
5781 5775 5771 5765 5765 5765 5767 5769 5771 5772 5775 5781 5782 5785 5789 5793 5792 5800 5804 5801 5804 5813 5823 5827 5831 5834 5838 5845 5846 5851 5854 5856 5858 5861 5864 5866 5871 5855 5865 5866 5864 5867 5864 5866 5867
5774 5768 5764 5759 5760 5760 5762 5765 5766 5768 5770 5773 5776 5779 5784 5786 5788 5791 5795 5794 5797 5807 5809 5816 5821 5827 5833 5838 5841 5843 5846 5851 5853 5855 5856 5860 5868 5863 5852 5856 5858 5858 5859 5862 5863
5767 5761 5756 5755 5755 5757 5758 5760 5762 5763 5764 5766 5769 5772 5775 5781 5784 5786 5790 5790 5795 5797 5799 5808 5813 5818 5826 5832 5837 5838 5842 5845 5849 5850 5850 5854 5854 5849 5849 5846 5851 5853 5856 5858 5858
5760 5754 5750 5749 5751 5751 5754 5755 5755 5757 5760 5761 5764 5767 5771 5773 5776 5779 5786 5789 5791 5796 5800 5804 5807 5810 5817 5821 5825 5826 5829 5837 5840 5842 5845 5845 5842 5844 5839 5839 5837 5840 5850 5854 5854
5754 5749 5746 5747 5747 5748 5750 5751 5750 5752 5752 5755 5759 5761 5765 5767 5773 5776 5780 5785 5789 5789 5791 5798 5804 5807 5808 5814 5819 5822 5828 5830 5832 5837 5840 5842 5834 5836 5834 5835 5839 5841 5846 5848 5850
5746 5743 5742 5743 5743 5746 5749 5746 5746 5746 5749 5750 5752 5756 5757 5765 5767 5771 5775 5778 5784 5787 5787 5794 5799 5802 5805 5808 5813 5812 5822 5826 5827 5829 5832 5833 5823 5812 5816 5825 5829 5833 5840 5842 5844